Weather History for Pauls Valley, OK

Change the Weather History Date:

Wednesday, October 24, 2012

  Actual Average (KADH) Record (KADH)
Temperature  
Mean Temperature 68 °F -  
Max Temperature 73 °F 71 °F 89 °F (2003)
Min Temperature 64 °F 49 °F 29 °F (1917)
Cooling Degree Days 4    
Growing Degree Days 18 (Base 50)    
Moisture  
Dew Point 64 °F    
Average Humidity 81    
Maximum Humidity 94    
Minimum Humidity 69    
Precipitation  
Precipitation 0.00 in - - ()
Sea Level Pressure  
Sea Level Pressure 29.87 in    
Wind  
Wind Speed 12 mph (SSE)    
Max Wind Speed 23 mph    
Max Gust Speed 29 mph    
Visibility 10 miles    
Events      
Averages and records for this station are not official NWS values.
T = Trace of Precipitation, MM = Missing Value Source: NWS Daily Summary

Daily Weather History Graph

Daily Weather History Graph

Search for Another Location

Airport:

Trip Planner

Search our weather history database for the weather conditions in past years. The results will help you decide how hot, cold, wet, or windy it might be!

Date:

Astronomy

Oct. 24, 2012 Rise Set
Actual Time 7:42 AM CDT 6:42 PM CDT
Civil Twilight 7:16 AM CDT 7:08 PM CDT
Nautical Twilight 6:47 AM CDT 7:38 PM CDT
Astronomical Twilight 6:18 AM CDT 8:07 PM CDT
Moon 3:49 PM CDT (10/24) 2:50 AM CDT (10/24)
Length of Visible Light 11h 51m
Length of Day
11h 00m
Waxing Gibbous, 76% of the Moon is Illuminated
Oct 24
Waxing Gibbous
Oct 29
Full
Nov 6
Last Quarter
Nov 13
New
Nov 20
First Quarter

Hourly Weather History & Observations

Time (CDT) Temp. Dew Point Humidity Pressure Visibility Wind Dir Wind Speed Gust Speed Precip Events Conditions
12:15 AM 71.6 °F 64.4 °F 78% 29.89 in 10.0 mi South 12.7 mph 20.7 mph N/A   Unknown
12:35 AM 69.8 °F 64.4 °F 83% 29.89 in 10.0 mi SSE 11.5 mph - N/A   Unknown
12:55 AM 69.8 °F 64.4 °F 83% 29.89 in 10.0 mi South 15.0 mph - N/A   Unknown
1:15 AM 69.8 °F 64.4 °F 83% 29.89 in 10.0 mi South 11.5 mph - N/A   Unknown
1:35 AM 69.8 °F 64.4 °F 83% 29.90 in 10.0 mi South 12.7 mph - N/A   Unknown
1:55 AM 69.8 °F 64.4 °F 83% 29.89 in 10.0 mi South 11.5 mph - N/A   Unknown
2:15 AM 69.8 °F 64.4 °F 83% 29.89 in 10.0 mi South 11.5 mph - N/A   Unknown
2:35 AM 68.0 °F 64.4 °F 88% 29.88 in 10.0 mi South 9.2 mph - N/A   Unknown
2:55 AM 68.0 °F 64.4 °F 88% 29.88 in 10.0 mi South 9.2 mph - N/A   Unknown
3:15 AM 68.0 °F 64.4 °F 88% 29.89 in 10.0 mi South 9.2 mph - N/A   Unknown
3:35 AM 68.0 °F 64.4 °F 88% 29.89 in 10.0 mi South 9.2 mph - N/A   Unknown
3:55 AM 68.0 °F 64.4 °F 88% 29.88 in 10.0 mi SSE 5.8 mph - N/A   Unknown
4:15 AM 68.0 °F 62.6 °F 83% 29.88 in 10.0 mi SSE 6.9 mph - N/A   Unknown
4:35 AM 66.2 °F 62.6 °F 88% 29.88 in 10.0 mi SE 4.6 mph - N/A   Unknown
4:55 AM 64.4 °F 62.6 °F 94% 29.88 in 10.0 mi SE 5.8 mph - N/A   Unknown
5:15 AM 64.4 °F 62.6 °F 94% 29.88 in 10.0 mi SE 4.6 mph - N/A   Unknown
5:35 AM 64.4 °F 62.6 °F 94% 29.88 in 10.0 mi SSE 6.9 mph - N/A   Unknown
5:55 AM 64.4 °F 62.6 °F 94% 29.90 in 10.0 mi SSE 8.1 mph - N/A   Unknown
6:15 AM 64.4 °F 62.6 °F 94% 29.90 in 10.0 mi SSE 9.2 mph - N/A   Unknown
6:35 AM 64.4 °F 62.6 °F 94% 29.90 in 10.0 mi SSE 6.9 mph - N/A   Unknown
6:55 AM 64.4 °F 62.6 °F 94% 29.91 in 10.0 mi SSE 5.8 mph - N/A   Unknown
7:15 AM 64.4 °F 62.6 °F 94% 29.90 in 10.0 mi SSE 5.8 mph - N/A   Unknown
7:35 AM 64.4 °F 62.6 °F 94% 29.91 in 10.0 mi SE 8.1 mph - N/A   Unknown
7:55 AM 64.4 °F 62.6 °F 94% 29.92 in 10.0 mi SSE 5.8 mph - N/A   Unknown
8:15 AM 64.4 °F 62.6 °F 94% 29.93 in 10.0 mi SE 8.1 mph - N/A   Unknown
8:35 AM 64.4 °F 62.6 °F 94% 29.93 in 10.0 mi SSE 9.2 mph - N/A   Unknown
8:55 AM 66.2 °F 62.6 °F 88% 29.93 in 10.0 mi SSE 11.5 mph - N/A   Unknown
9:15 AM 68.0 °F 64.4 °F 88% 29.94 in 10.0 mi SSE 10.4 mph - N/A   Unknown
9:35 AM 69.8 °F 64.4 °F 83% 29.94 in 10.0 mi South 9.2 mph - N/A   Unknown
9:55 AM 69.8 °F 64.4 °F 83% 29.93 in 10.0 mi South 15.0 mph - N/A   Unknown
10:15 AM 71.6 °F 64.4 °F 78% 29.94 in 10.0 mi South 12.7 mph - N/A   Unknown
10:35 AM 71.6 °F 64.4 °F 78% 29.94 in 10.0 mi South 17.3 mph - N/A   Unknown
10:55 AM 71.6 °F 64.4 °F 78% 29.94 in 10.0 mi South 20.7 mph - N/A   Unknown
11:15 AM 71.6 °F 64.4 °F 78% 29.94 in 10.0 mi South 16.1 mph 24.2 mph N/A   Unknown
11:35 AM 71.6 °F 64.4 °F 78% 29.94 in 10.0 mi South 16.1 mph - N/A   Unknown
11:55 AM 71.6 °F 64.4 °F 78% 29.93 in 10.0 mi South 18.4 mph 26.5 mph N/A   Unknown
12:15 PM 69.8 °F 64.4 °F 83% 29.93 in 10.0 mi South 21.9 mph 25.3 mph N/A   Unknown
12:35 PM 69.8 °F 64.4 °F 83% 29.93 in 10.0 mi South 17.3 mph 23.0 mph N/A   Unknown
12:55 PM 69.8 °F 64.4 °F 83% 29.92 in 10.0 mi South 13.8 mph - N/A   Unknown
1:15 PM 69.8 °F 64.4 °F 83% 29.91 in 10.0 mi South 16.1 mph 24.2 mph N/A   Unknown
1:35 PM 69.8 °F 64.4 °F 83% 29.89 in 10.0 mi South 15.0 mph 21.9 mph N/A   Unknown
1:55 PM 71.6 °F 64.4 °F 78% 29.87 in 10.0 mi South 18.4 mph 21.9 mph N/A   Unknown
2:15 PM 71.6 °F 64.4 °F 78% 29.87 in 10.0 mi South 19.6 mph 25.3 mph N/A   Unknown
2:35 PM 71.6 °F 64.4 °F 78% 29.86 in 10.0 mi South 19.6 mph 24.2 mph N/A   Unknown
2:55 PM 71.6 °F 64.4 °F 78% 29.86 in 10.0 mi South 23.0 mph 28.8 mph N/A   Unknown
3:15 PM 71.6 °F 64.4 °F 78% 29.85 in 10.0 mi South 15.0 mph - N/A   Unknown
3:35 PM 71.6 °F 64.4 °F 78% 29.84 in 10.0 mi South 16.1 mph 24.2 mph N/A   Unknown
4:15 PM 73.4 °F 64.4 °F 73% 29.83 in 10.0 mi South 16.1 mph 21.9 mph N/A   Unknown
4:35 PM 73.4 °F 64.4 °F 73% 29.84 in 10.0 mi South 16.1 mph 21.9 mph N/A   Unknown
4:55 PM 73.4 °F 64.4 °F 73% 29.83 in 10.0 mi SSE 11.5 mph 18.4 mph N/A   Unknown
5:15 PM 73.4 °F 64.4 °F 73% 29.82 in 10.0 mi South 10.4 mph - N/A   Unknown
5:35 PM 73.4 °F 64.4 °F 73% 29.82 in 10.0 mi South 11.5 mph - N/A   Unknown
5:55 PM 73.4 °F 64.4 °F 73% 29.81 in 10.0 mi South 13.8 mph - N/A   Unknown
6:15 PM 73.4 °F 64.4 °F 73% 29.81 in 10.0 mi SSE 9.2 mph - N/A   Unknown
6:35 PM 73.4 °F 64.4 °F 73% 29.80 in 10.0 mi SSE 12.7 mph 17.3 mph N/A   Unknown
6:55 PM 73.4 °F 62.6 °F 69% 29.80 in 10.0 mi South 10.4 mph - N/A   Unknown
7:15 PM 73.4 °F 62.6 °F 69% 29.80 in 10.0 mi SSE 11.5 mph - N/A   Unknown
7:55 PM 71.6 °F 62.6 °F 73% 29.80 in 10.0 mi SSE 10.4 mph - N/A   Unknown
8:15 PM 71.6 °F 62.6 °F 73% 29.81 in 10.0 mi SSE 10.4 mph - N/A   Unknown
8:35 PM 71.6 °F 62.6 °F 73% 29.81 in 10.0 mi SSE 12.7 mph - N/A   Unknown
8:55 PM 71.6 °F 62.6 °F 73% 29.80 in 10.0 mi SSE 13.8 mph - N/A   Unknown
9:15 PM 71.6 °F 62.6 °F 73% 29.80 in 10.0 mi SSE 16.1 mph - N/A   Unknown
9:55 PM 71.6 °F 62.6 °F 73% 29.79 in 10.0 mi SSE 18.4 mph - N/A   Unknown
10:15 PM 71.6 °F 62.6 °F 73% 29.79 in 10.0 mi South 20.7 mph - N/A   Unknown
10:35 PM 71.6 °F 62.6 °F 73% 29.79 in 10.0 mi SSE 17.3 mph 24.2 mph N/A   Unknown
10:55 PM 71.6 °F 62.6 °F 73% 29.78 in 10.0 mi SSE 17.3 mph 25.3 mph N/A   Unknown
11:15 PM 71.6 °F 62.6 °F 73% 29.77 in 10.0 mi SSE 21.9 mph 28.8 mph N/A   Unknown
11:35 PM 71.6 °F 62.6 °F 73% 29.77 in 10.0 mi SSE 15.0 mph 23.0 mph N/A   Unknown
11:55 PM 71.6 °F 62.6 °F 73% 29.76 in 10.0 mi SSE 18.4 mph 24.2 mph N/A   Unknown